Location: Miles
(41.4492°N, 81.6087°W)
Time: 07:17:33
(UTC+00:00)

Vanguard 1 Rocket - Pass Details

Date: 12 September 2024
Orbit: 650 x 4218 km, 34.3° (Epoch: 05 October)

Event Time Altitude Azimuth Distance (km) Brightness Sun altitude
Rises 13:49:38 0° 276° (W) 7,440 11.5 29.5°
Reaches altitude 10° 13:54:10 10° 273° (W) 6,741 11.4 30.3°
Maximum altitude 14:18:23 64° 200° (SSW) 4,475 11.5 34.3°
Drops below altitude 10° 14:40:56 10° 125° (SE) 6,335 13.0 37.9°
Sets 14:45:03 0° 122° (ESE) 6,994 12.8 38.5°
